Weather History for Fort Yukon, AK

Change the Weather History Date:

Friday, May 11, 2012

  Actual Average Record
Temperature  
Mean Temperature 9 °C -  
Max Temperature 16 °C 10 °C 17 °C (1999)
Min Temperature 2 °C -1 °C -1 °C (2001)
Degree Days  
Heating Degree Days 18    
Moisture  
Dew Point -4 °C    
Average Humidity 43    
Maximum Humidity 65    
Minimum Humidity 21    
Precipitation  
Precipitation 0.00 mm - - ()
Sea Level Pressure  
Sea Level Pressure 995 hPa    
Wind  
Wind Speed 6 km/h (East)    
Max Wind Speed 19 km/h    
Max Gust Speed -    
Visibility 16 kilometers    
Events      
Averages and records for this station are not official NWS values.
T = Trace of Precipitation, MM = Missing Value Source: NWS Daily Summary

Daily Weather History Graph

Daily Weather History Graph

Search for Another Location

Airport:

Trip Planner

Search our weather history database for the weather conditions in past years. The results will help you decide how hot, cold, wet, or windy it might be!

Date:

Astronomy

May. 11, 2012 Rise Set
Actual Time 4:08 AM AKDT 11:09 PM AKDT
Civil Twilight 2:09 AM AKDT 1:04 AM AKDT
Nautical Twilight Sun does not rise Sun does not rise
Astronomical Twilight Sun does not rise Sun does not rise
Moon 3:16 AM AKDT (5/11) 10:35 AM AKDT (5/11)
Length of Visible Light 22h 55m
Length of Day
19h 01m
Waning Gibbous, 61% of the Moon is Illuminated
May 11
Waning Gibbous
May 12
Last Quarter
May 20
New
May 28
First Quarter
Jun 4
Full

Hourly Weather History & Observations

Time (AKDT) Temp. Windchill Dew Point Humidity Pressure Visibility Wind Dir Wind Speed Gust Speed Precip Events Conditions
12:16 AM 4.0 °C - -5.0 °C 52% 994.8 hPa 16.1 km Calm Calm - N/A   Partly Cloudy
12:36 AM 3.0 °C 1.6 °C -4.0 °C 60% 994.8 hPa 16.1 km NNE 5.6 km/h / 1.5 m/s - N/A   Partly Cloudy
12:56 AM 3.0 °C - -7.0 °C 48% 994.8 hPa 16.1 km Calm Calm - N/A   Clear
1:16 AM 2.0 °C - -5.0 °C 60% 994.8 hPa 16.1 km Calm Calm - N/A   Clear
1:36 AM 2.0 °C -0.2 °C -7.0 °C 52% 994.8 hPa 16.1 km North 7.4 km/h / 2.1 m/s - N/A   Clear
1:56 AM 2.0 °C -0.7 °C -6.0 °C 56% 994.8 hPa 16.1 km NNE 9.3 km/h / 2.6 m/s - N/A   Clear
2:16 AM 2.0 °C -0.7 °C -6.0 °C 56% 994.8 hPa 16.1 km NNE 9.3 km/h / 2.6 m/s - N/A   Clear
2:36 AM 2.0 °C -0.2 °C -6.0 °C 56% 994.5 hPa 16.1 km NE 7.4 km/h / 2.1 m/s - N/A   Clear
2:56 AM 3.0 °C 1.0 °C -6.0 °C 52% 994.5 hPa 16.1 km ENE 7.4 km/h / 2.1 m/s - N/A   Clear
3:16 AM 3.0 °C 1.6 °C -6.0 °C 52% 994.5 hPa 16.1 km NE 5.6 km/h / 1.5 m/s - N/A   Clear
3:36 AM 2.0 °C 0.5 °C -5.0 °C 60% 994.5 hPa 16.1 km NE 5.6 km/h / 1.5 m/s - N/A   Clear
3:56 AM 2.0 °C -0.2 °C -6.0 °C 56% 994.8 hPa 16.1 km NNE 7.4 km/h / 2.1 m/s - N/A   Clear
4:16 AM 2.0 °C -0.2 °C -6.0 °C 56% 994.5 hPa 16.1 km NNE 7.4 km/h / 2.1 m/s - N/A   Clear
4:36 AM 2.0 °C -0.2 °C -5.0 °C 60% 994.5 hPa 16.1 km NNE 7.4 km/h / 2.1 m/s - N/A   Clear
4:56 AM 2.0 °C 0.5 °C -4.0 °C 65% 994.5 hPa 16.1 km NE 5.6 km/h / 1.5 m/s - N/A   Clear
5:16 AM 2.0 °C -0.2 °C -4.0 °C 65% 994.5 hPa 16.1 km NNE 7.4 km/h / 2.1 m/s - N/A   Clear
5:36 AM 2.0 °C -0.2 °C -5.0 °C 60% 994.5 hPa 16.1 km NNE 7.4 km/h / 2.1 m/s - N/A   Clear
5:56 AM 2.0 °C -0.2 °C -4.0 °C 65% 994.5 hPa 16.1 km NE 7.4 km/h / 2.1 m/s - N/A   Partly Cloudy
6:16 AM 3.0 °C 0.5 °C -4.0 °C 60% 994.5 hPa 16.1 km NE 9.3 km/h / 2.6 m/s - N/A   Clear
6:36 AM 3.0 °C 0.0 °C -4.0 °C 60% 994.1 hPa 16.1 km NNE 11.1 km/h / 3.1 m/s - N/A   Partly Cloudy
6:56 AM 3.0 °C 0.0 °C -4.0 °C 60% 994.5 hPa 16.1 km NE 11.1 km/h / 3.1 m/s - N/A   Mostly Cloudy
7:16 AM 4.0 °C 1.7 °C -4.0 °C 56% 994.5 hPa 16.1 km East 9.3 km/h / 2.6 m/s - N/A   Mostly Cloudy
7:36 AM 6.0 °C 4.5 °C -4.0 °C 49% 994.5 hPa 16.1 km East 7.4 km/h / 2.1 m/s - N/A   Mostly Cloudy
7:56 AM 7.0 °C 6.2 °C -4.0 °C 46% 994.5 hPa 16.1 km East 5.6 km/h / 1.5 m/s - N/A   Overcast
8:16 AM 8.0 °C 6.8 °C -4.0 °C 43% 994.1 hPa 16.1 km East 7.4 km/h / 2.1 m/s - N/A   Overcast
8:36 AM 8.0 °C 7.3 °C -4.0 °C 43% 994.1 hPa 16.1 km East 5.6 km/h / 1.5 m/s - N/A   Overcast
8:56 AM 9.0 °C - -4.0 °C 40% 994.5 hPa 16.1 km Calm Calm - N/A   Overcast
9:16 AM 9.0 °C - -3.0 °C 43% 994.5 hPa 16.1 km East 7.4 km/h / 2.1 m/s - N/A   Overcast
9:36 AM 10.0 °C - -3.0 °C 40% 994.5 hPa 16.1 km East 7.4 km/h / 2.1 m/s - N/A   Overcast
9:56 AM 11.0 °C - -3.0 °C 38% 994.5 hPa 16.1 km SE 7.4 km/h / 2.1 m/s - N/A   Overcast
10:16 AM 11.0 °C - -3.0 °C 38% 994.1 hPa 16.1 km SE 9.3 km/h / 2.6 m/s - N/A   Overcast
10:36 AM 12.0 °C - -3.0 °C 35% 994.1 hPa 16.1 km ESE 5.6 km/h / 1.5 m/s - N/A   Mostly Cloudy
10:56 AM 12.0 °C - -3.0 °C 35% 994.1 hPa 16.1 km East 5.6 km/h / 1.5 m/s - N/A   Mostly Cloudy
11:16 AM 12.0 °C - -3.0 °C 35% 994.1 hPa 16.1 km ESE 5.6 km/h / 1.5 m/s - N/A   Overcast
11:36 AM 12.0 °C - -3.0 °C 35% 994.5 hPa 16.1 km ESE 9.3 km/h / 2.6 m/s - N/A   Overcast
11:56 AM 12.0 °C - -3.0 °C 35% 994.5 hPa 16.1 km ESE 7.4 km/h / 2.1 m/s - N/A   Overcast
12:16 PM 13.0 °C - -3.0 °C 33% 994.8 hPa 16.1 km SE 9.3 km/h / 2.6 m/s - N/A   Overcast
12:36 PM 13.0 °C - -3.0 °C 33% 994.8 hPa 16.1 km SE 13.0 km/h / 3.6 m/s - N/A   Overcast
12:56 PM 13.0 °C - -3.0 °C 33% 994.8 hPa 16.1 km South 9.3 km/h / 2.6 m/s - N/A   Overcast
1:16 PM 13.0 °C - -4.0 °C 31% 994.8 hPa 16.1 km South 13.0 km/h / 3.6 m/s - N/A   Overcast
1:36 PM 14.0 °C - -3.0 °C 31% 994.8 hPa 16.1 km South 9.3 km/h / 2.6 m/s - N/A   Overcast
1:56 PM 13.0 °C - -3.0 °C 33% 994.8 hPa 16.1 km South 13.0 km/h / 3.6 m/s - N/A   Mostly Cloudy
2:16 PM 13.0 °C - -3.0 °C 33% 994.8 hPa 16.1 km South 16.7 km/h / 4.6 m/s - N/A   Mostly Cloudy
2:36 PM 13.0 °C - -3.0 °C 33% 995.1 hPa 16.1 km SSE 11.1 km/h / 3.1 m/s - N/A   Mostly Cloudy
2:56 PM 13.0 °C - -3.0 °C 33% 995.1 hPa 16.1 km SSE 9.3 km/h / 2.6 m/s - N/A   Mostly Cloudy
3:16 PM 13.0 °C - -3.0 °C 33% 995.1 hPa 16.1 km SSE 13.0 km/h / 3.6 m/s - N/A   Scattered Clouds
3:36 PM 13.0 °C - -3.0 °C 33% 995.1 hPa 16.1 km SSE 9.3 km/h / 2.6 m/s - N/A   Mostly Cloudy
3:56 PM 13.0 °C - -3.0 °C 33% 994.8 hPa 16.1 km SE 13.0 km/h / 3.6 m/s - N/A   Mostly Cloudy
4:16 PM 13.0 °C - -3.0 °C 33% 995.1 hPa 16.1 km SE 9.3 km/h / 2.6 m/s - N/A   Mostly Cloudy
4:36 PM 14.0 °C - -4.0 °C 29% 994.8 hPa 16.1 km SSE 7.4 km/h / 2.1 m/s - N/A   Mostly Cloudy
4:56 PM 14.0 °C - -4.0 °C 29% 995.1 hPa 16.1 km SE 14.8 km/h / 4.1 m/s - N/A   Clear
5:16 PM 14.0 °C - -4.0 °C 29% 994.8 hPa 16.1 km SSE 9.3 km/h / 2.6 m/s - N/A   Scattered Clouds
5:36 PM 16.0 °C - -4.0 °C 25% 994.8 hPa 16.1 km SE 11.1 km/h / 3.1 m/s - N/A   Scattered Clouds
5:56 PM 16.0 °C - -4.0 °C 25% 994.8 hPa 16.1 km ESE 11.1 km/h / 3.1 m/s - N/A   Scattered Clouds
6:16 PM 14.0 °C - -4.0 °C 29% 994.8 hPa 16.1 km ESE 9.3 km/h / 2.6 m/s - N/A   Scattered Clouds
6:36 PM 14.0 °C - -6.0 °C 25% 994.8 hPa 16.1 km ESE 9.3 km/h / 2.6 m/s - N/A   Scattered Clouds
6:56 PM 13.0 °C - -4.0 °C 31% 995.1 hPa 16.1 km ESE 9.3 km/h / 2.6 m/s - N/A   Scattered Clouds
7:16 PM 14.0 °C - -7.0 °C 23% 995.1 hPa 16.1 km South 7.4 km/h / 2.1 m/s - N/A   Mostly Cloudy
7:36 PM 15.0 °C - -7.0 °C 22% 995.5 hPa 16.1 km WSW 7.4 km/h / 2.1 m/s - N/A   Overcast
7:56 PM 13.0 °C - 0.0 °C 41% 995.5 hPa 16.1 km ENE 18.5 km/h / 5.1 m/s - N/A   Overcast
8:16 PM 13.0 °C - -2.0 °C 36% 996.2 hPa 16.1 km NE 7.4 km/h / 2.1 m/s - N/A   Mostly Cloudy
8:36 PM 13.0 °C - -2.0 °C 36% 996.2 hPa 16.1 km Calm Calm - N/A   Partly Cloudy
8:56 PM 13.0 °C - -2.0 °C 36% 996.5 hPa 16.1 km East 5.6 km/h / 1.5 m/s - N/A   Partly Cloudy
9:16 PM 13.0 °C - -2.0 °C 36% 996.5 hPa 16.1 km East 13.0 km/h / 3.6 m/s - N/A   Partly Cloudy
9:36 PM 12.0 °C - -2.0 °C 38% 996.8 hPa 16.1 km East 7.4 km/h / 2.1 m/s - N/A   Clear
9:56 PM 11.0 °C - -1.0 °C 44% 997.2 hPa 14.5 km Calm Calm - N/A   Partly Cloudy
10:16 PM 11.0 °C - -1.0 °C 44% 997.5 hPa 16.1 km Calm Calm - N/A   Scattered Clouds
10:36 PM 9.0 °C - 0.0 °C 54% 997.5 hPa 16.1 km NNE 7.4 km/h / 2.1 m/s - N/A   Mostly Cloudy
10:56 PM 9.0 °C - -1.0 °C 50% 997.5 hPa 16.1 km Calm Calm - N/A   Mostly Cloudy
11:16 PM 7.0 °C - 0.0 °C 61% 997.9 hPa 16.1 km Calm Calm - N/A   Scattered Clouds
11:36 PM 7.0 °C - -1.0 °C 57% 997.9 hPa 12.9 km Calm Calm - N/A   Clear
11:56 PM 6.0 °C - -1.0 °C 61% 998.2 hPa 16.1 km Calm Calm - N/A   Scattered Clouds